This is the latest recevied weather packets stored in our database for station/object N7WSS. If no packets are shown the sender has not sent any weather packets the latest 10 day(s).
| Time | Temp. | Humidity | Pressure | Rain* | Wind** | Luminosity | Snow |
|---|---|---|---|---|---|---|---|
| 1788000410 | 26.11° C | 49% | 1013.7 hPa | 0 mm | - | - | - |
| 1788000109 | 26.67° C | 48% | 1013.7 hPa | 0 mm | - | - | - |
| 1787999806 | 26.67° C | 48% | 1013.5 hPa | 0 mm | - | - | - |
| 1787999503 | 26.11° C | 51% | 1013.8 hPa | 0 mm | - | - | - |
| 1787999198 | 26.11° C | 51% | 1013.7 hPa | 0 mm | - | - | - |
| 1787998892 | 26.67° C | 50% | 1013.5 hPa | 0 mm | - | - | - |
| 1787998591 | 26.67° C | 50% | 1013.7 hPa | 0 mm | - | - | - |
| 1787998291 | 26.67° C | 49% | 1013.7 hPa | 0 mm | - | - | - |
| 1787997986 | 26.11° C | 52% | 1013.7 hPa | 0 mm | - | - | - |
| 1787997685 | 26.11° C | 53% | 1013.7 hPa | 0 mm | - | - | - |
| 1787997383 | 26.11° C | 55% | 1013.6 hPa | 0 mm | - | - | - |
| 1787997078 | 26.67° C | 55% | 1013.6 hPa | 0 mm | - | - | - |
| 1787996773 | 26.11° C | 56% | 1013.7 hPa | 0 mm | - | - | - |
| 1787996468 | 26.67° C | 56% | 1013.5 hPa | 0 mm | - | - | - |
| 1787996163 | 26.67° C | 54% | 1013.7 hPa | 0 mm | - | - | - |
| 1787995862 | 26.67° C | 53% | 1013.6 hPa | 0 mm | - | - | - |
| 1787995558 | 26.67° C | 52% | 1013.5 hPa | 0 mm | - | - | - |
| 1787995254 | 26.67° C | 52% | 1013.7 hPa | 0 mm | - | - | - |
| 1787994949 | 26.67° C | 52% | 1013.6 hPa | 0 mm | - | - | - |
| 1787994645 | 26.67° C | 52% | 1013.6 hPa | 0 mm | - | - | - |
| 1787994342 | 26.67° C | 53% | 1013.8 hPa | 0 mm | - | - | - |
| 1787994037 | 27.22° C | 52% | 1013.6 hPa | 0 mm | - | - | - |
| 1787993736 | 27.22° C | 52% | 1013.6 hPa | 0 mm | - | - | - |
| 1787993430 | 27.22° C | 52% | 1013.6 hPa | 0 mm | - | - | - |
| 1787993126 | 27.78° C | 51% | 1013.5 hPa | 0 mm | - | - | - |
* Rain latest hour (hover to see other rain measurements)
** Current wind speed in m/s (hover to see current wind gust speed)